Location: Oakley
(37.9974°N, 121.7125°W)
Time: 11:54:43
(UTC+00:00)

Cosmos 2346 Rocket - Pass Details

Date: 13 February 2026
Orbit: 935 x 980 km, 82.9° (Epoch: 17 March)

Event Time Altitude Azimuth Distance (km) Brightness Sun altitude
Rises 13:49:55 0° 351° (N) 3,652 7.3 -14.2°
Reaches altitude 10° 13:52:26 10° 350° (N) 2,695 6.7 -13.7°
Maximum altitude 13:58:34 75° 266° (W) 981 4.4 -12.5°
Drops below altitude 10° 14:04:36 10° 182° (S) 2,649 6.9 -11.3°
Sets 14:07:04 0° 180° (S) 3,585 7.6 -10.8°
